GEFSNE_500_meanwind_288.txt.gz
Wind_Speed
18 18 18 18 18 18 19 19 19 19 19 19 20 21 21 21 21 21 21 21 21 21 21 20 20 20 20 21 20 20 20 19 19 19 20 20 20 20
19 19 19 19 19 20 20 20 20 20 20 20 20 21 21 22 21 21 21 21 21 21 21 21 20 20 20 21 21 21 21 20 20 20 20 20 20 20
20 20 20 21 21 21 22 22 21 21 21 21 21 20 21 21 22 23 22 22 22 22 22 21 21 21 22 22 22 22 22 21 21 21 21 21 21 20
23 22 22 23 23 23 23 23 22 22 22 22 22 22 22 22 21 22 22 23 23 23 23 23 23 22 22 23 22 22 22 22 22 22 22 21 20 20
24 25 24 24 24 24 24 24 24 24 24 23 23 23 23 23 22 22 22 22 23 23 24 24 24 23 24 24 23 23 23 23 23 23 22 21 20 20
26 26 26 25 25 26 26 26 26 26 25 25 24 24 24 24 23 23 22 23 24 24 25 25 25 25 25 26 25 24 24 23 23 23 22 22 21 21
26 26 26 26 26 26 26 27 27 27 27 26 25 25 25 25 24 24 23 24 24 25 25 25 26 26 25 26 26 26 26 25 24 24 23 23 23 23
25 25 25 25 26 26 26 27 27 27 27 27 27 26 25 25 25 25 25 25 25 25 26 26 26 26 27 27 27 27 27 27 26 26 26 25 25 25
25 25 24 25 25 25 26 26 27 27 27 27 27 27 26 26 26 26 26 25 26 26 26 26 26 27 27 26 26 26 27 27 27 27 27 28 28 28
25 25 25 25 25 25 25 25 26 27 27 27 28 28 28 28 27 26 26 26 26 26 26 26 26 27 27 27 26 27 27 27 27 27 28 28 29 29
25 25 25 25 25 25 26 26 26 26 27 28 28 28 28 28 28 27 26 26 26 26 26 26 26 27 27 26 26 26 27 27 27 27 28 29 28 28
26 25 26 26 26 26 26 26 26 26 26 27 28 27 28 28 28 27 27 27 27 26 26 26 26 27 27 26 26 26 26 26 27 27 27 28 28 27
27 26 27 27 27 27 27 26 26 27 27 26 27 28 27 27 27 28 28 28 28 27 27 27 27 27 27 26 27 27 27 27 27 27 27 27 27 27
26 26 27 27 27 27 27 27 26 27 27 27 27 28 27 27 27 27 28 28 28 28 28 27 27 27 26 26 26 26 27 27 27 27 27 27 26 26
27 26 26 26 27 28 28 27 26 26 26 27 27 27 28 28 28 27 27 28 28 28 28 27 27 27 27 26 26 26 26 27 27 26 26 27 27 26
27 27 27 26 27 27 27 27 26 26 25 26 26 26 27 28 28 28 27 28 28 28 27 28 28 28 28 27 27 27 27 27 27 28 28 28 27 27
27 27 27 27 27 26 26 26 26 26 25 25 25 25 26 28 28 28 28 28 28 27 27 27 27 28 28 28 28 28 28 28 28 28 29 29 28 28
27 27 26 26 26 25 25 25 26 26 26 25 25 26 26 26 27 27 28 28 27 27 27 27 27 27 27 28 28 28 28 28 28 28 29 29 29 29
27 27 26 25 25 24 24 24 25 25 25 25 25 25 26 26 27 27 28 28 28 27 27 27 27 27 27 27 27 28 28 28 28 28 28 29 28 28
26 26 26 25 24 24 23 24 24 24 24 25 25 26 26 27 27 27 28 28 28 27 27 27 27 27 27 27 27 28 29 28 28 28 28 28 28 28
26 26 26 25 25 24 24 24 24 24 24 24 24 25 26 27 28 28 28 28 28 28 28 28 28 28 28 28 27 27 27 28 28 27 27 28 29 29
26 26 25 25 25 24 24 24 24 24 24 25 25 25 26 26 27 27 28 29 29 29 29 28 28 29 29 29 28 28 28 28 28 27 27 27 28 29
25 25 25 25 24 24 24 24 24 25 25 25 25 25 25 26 26 27 27 28 29 29 29 29 29 29 29 29 28 28 28 29 29 29 29 28 28 29

GEFSNE_500_meanwind_294.txt.gz
Wind_Speed
18 18 18 18 18 18 19 19 19 19 19 20 19 19 20 20 21 21 21 21 21 21 21 22 22 22 22 22 22 22 22 22 22 21 21 21 21 20
20 20 19 19 19 19 20 20 20 20 20 20 20 20 20 21 21 21 22 22 22 22 23 23 23 23 23 23 24 24 24 23 22 22 22 22 22 22
21 21 21 21 20 21 21 21 21 21 21 21 21 21 21 21 22 22 22 23 23 23 24 24 24 24 24 23 23 23 24 23 23 23 23 23 24 23
22 22 22 22 22 22 22 22 22 22 23 23 23 22 22 22 23 24 24 24 24 24 24 25 25 25 24 24 24 24 24 25 25 25 25 25 25 24
23 24 24 25 25 24 24 24 25 25 24 25 25 24 24 24 24 24 25 25 25 25 25 25 25 25 25 25 25 25 26 26 26 26 26 26 26 26
25 25 25 26 26 27 27 26 26 26 26 26 26 26 26 25 25 25 25 26 26 26 26 26 26 26 27 27 26 26 27 27 27 27 27 27 27 27
26 26 26 26 27 28 28 28 28 27 27 27 27 27 27 26 26 26 27 27 27 27 27 28 27 27 27 27 27 27 28 28 28 28 27 27 28 28
27 27 27 27 28 28 28 28 28 28 27 27 27 27 26 27 26 26 27 27 27 27 27 28 28 28 29 28 28 28 29 28 28 28 27 27 27 27
27 27 28 28 27 28 28 28 28 28 28 28 27 26 26 26 26 26 26 27 27 28 28 27 27 27 28 28 28 28 28 28 29 27 27 27 27 27
28 28 28 28 28 27 27 28 28 28 28 28 28 27 27 27 27 27 27 27 27 28 28 27 27 27 27 27 28 28 28 28 28 28 28 27 27 27
28 28 28 28 28 28 28 28 28 27 28 29 28 28 28 28 28 28 28 28 27 27 27 27 26 27 27 27 28 28 28 28 29 29 28 28 28 27
28 28 28 28 28 28 29 29 29 28 28 28 28 28 28 28 28 28 28 28 27 27 27 27 27 26 26 26 27 28 28 28 28 29 29 28 28 27
29 29 29 29 29 29 29 29 29 29 29 29 28 28 29 28 28 28 28 28 28 28 27 27 27 27 26 26 26 27 27 28 28 28 28 28 28 27
29 30 30 30 30 30 30 29 29 29 29 29 29 29 29 29 29 28 29 29 28 28 27 27 27 27 27 26 26 27 27 27 27 27 27 27 27 27
29 29 29 29 29 29 29 29 29 28 28 29 28 28 28 29 29 30 30 29 29 28 27 27 27 27 27 27 26 27 27 27 27 27 26 26 27 28
29 28 28 28 29 28 28 28 29 29 28 28 28 28 28 28 28 29 29 29 28 27 26 27 27 26 26 26 26 26 27 27 27 27 26 26 27 27
29 28 28 28 28 28 28 29 29 28 28 28 28 28 28 28 28 28 28 28 28 27 27 27 27 27 27 27 27 26 27 27 27 27 26 26 26 26
29 29 29 28 28 27 27 27 28 28 28 27 27 27 28 28 28 28 28 28 27 27 27 27 27 27 28 27 27 27 27 27 27 28 27 27 26 27
29 29 29 28 27 27 27 26 27 27 27 27 27 26 27 27 27 27 27 27 27 27 27 27 27 27 28 28 28 28 28 28 28 28 28 27 27 28
28 28 28 28 27 27 27 27 26 26 26 26 26 26 26 27 27 26 26 26 26 26 27 27 27 27 27 27 28 29 29 29 29 28 28 28 28 28
28 28 28 28 27 27 27 27 27 26 26 27 27 26 26 26 26 26 27 27 26 27 27 27 27 27 27 28 28 28 28 29 29 29 29 29 28 28
27 27 27 27 27 27 27 27 27 27 27 27 28 27 27 26 26 27 27 27 27 27 27 27 27 27 28 28 28 27 28 28 28 28 29 29 29 28
26 26 26 26 26 27 27 27 26 26 27 27 28 28 28 27 27 27 27 28 28 28 28 28 28 28 28 28 28 27 27 27 27 28 28 28 29 28

GEFSNE_500_meanwind_300.txt.gz
Wind_Speed
20 20 20 20 20 20 20 20 20 20 20 20 19 20 20 19 20 20 21 21 21 21 20 20 20 20 20 20 20 20 21 21 21 21 21 21 21 20
21 21 22 21 22 22 22 22 22 21 21 21 20 21 22 21 21 21 21 22 22 22 22 21 21 21 21 21 22 22 22 22 22 22 22 22 22 22
22 23 23 23 23 23 23 23 23 23 22 22 22 22 23 22 23 22 22 23 23 22 23 23 23 23 23 23 23 23 24 24 24 24 24 23 23 23
24 24 24 24 24 24 24 24 24 23 23 23 23 22 23 23 24 24 23 23 23 24 24 24 24 25 25 25 25 25 24 24 24 24 24 24 24 24
24 24 24 24 25 25 25 25 25 25 25 25 25 24 24 23 24 24 24 24 24 25 25 25 25 25 25 25 25 25 24 24 24 24 24 24 24 24
24 24 25 26 26 26 25 26 26 26 26 26 26 26 25 24 24 25 25 25 25 25 26 25 25 26 26 25 25 25 25 25 24 24 24 24 24 25
24 25 25 26 26 26 27 27 27 27 27 27 27 27 26 26 26 25 25 25 26 26 26 26 26 26 26 26 26 26 26 26 25 25 25 25 25 26
25 26 26 26 27 27 28 28 28 28 28 28 28 28 27 27 27 26 25 25 25 26 26 26 26 26 26 26 26 27 26 26 26 26 26 26 26 26
26 27 27 27 27 28 28 29 29 29 29 28 28 29 28 28 27 27 26 26 25 25 26 26 26 26 26 27 27 27 27 27 26 26 26 26 27 27
27 28 28 28 28 29 29 29 29 29 29 30 30 29 29 29 28 27 27 27 27 26 26 26 26 27 27 27 27 27 27 27 27 27 27 26 27 27
28 28 29 29 29 30 30 29 29 29 29 30 30 30 29 29 29 28 27 27 27 27 27 27 27 27 27 26 27 27 27 27 27 27 27 26 26 26
28 29 29 29 30 31 30 30 30 29 30 30 30 30 30 30 29 29 28 28 28 28 28 28 27 26 26 26 27 27 27 27 27 27 27 26 26 26
29 29 29 29 30 30 30 30 30 30 30 30 30 31 30 31 31 30 29 29 28 28 28 27 27 27 26 26 27 27 27 27 27 27 26 26 26 26
29 29 29 29 29 30 30 30 31 30 30 30 30 30 30 30 30 30 30 29 29 28 28 28 28 27 26 26 26 26 26 26 27 27 26 26 26 25
29 29 29 29 30 30 30 30 31 30 30 30 29 29 29 30 30 30 30 30 30 29 28 28 27 27 26 26 25 25 25 26 26 26 26 25 25 26
30 29 29 30 30 30 30 30 30 30 30 30 30 29 29 29 29 29 29 29 29 29 28 28 27 27 26 25 25 25 25 26 26 25 25 25 25 26
30 30 30 30 30 31 30 30 30 30 30 30 30 29 29 28 28 28 29 30 29 29 28 28 28 27 27 26 25 25 25 25 26 26 26 26 26 26
31 31 31 30 30 30 30 30 30 30 30 29 28 28 28 28 28 28 29 29 29 29 28 28 28 27 26 26 25 24 24 24 25 25 26 26 26 26
32 32 31 31 31 31 31 30 30 30 29 29 28 28 28 28 27 28 29 29 29 29 28 28 27 27 27 27 27 26 25 24 24 24 25 25 25 26
32 32 32 30 30 30 31 30 30 30 30 29 29 29 28 28 28 27 27 28 28 28 28 28 28 27 27 27 27 27 27 26 25 25 25 25 26 26
30 30 30 30 29 29 30 29 29 29 29 29 29 30 29 29 28 28 28 28 28 29 29 28 27 27 27 27 27 26 27 27 27 26 25 25 26 26
29 29 29 29 29 28 28 28 28 28 29 29 29 30 30 30 29 28 28 28 28 29 29 29 28 27 27 27 26 26 26 26 27 26 26 26 26 26
29 28 28 28 27 28 27 27 27 27 27 28 29 29 29 29 29 29 28 28 28 28 28 28 27 28 28 28 27 27 27 26 26 26 26 26 26 26

GEFSNE_500_meanwind_306.txt.gz
Wind_Speed
19 20 20 21 21 21 22 22 22 21 21 21 21 21 22 22 22 22 22 22 22 21 22 22 21 21 21 21 21 21 21 20 21 21 21 21 21 21
19 20 21 21 22 23 23 23 23 23 23 23 22 22 22 22 22 22 22 22 22 22 22 23 22 23 23 22 22 22 22 21 22 22 22 22 22 22
20 20 21 22 22 23 23 24 24 25 24 23 23 23 23 22 23 23 23 23 23 23 23 23 23 23 24 24 24 24 23 23 23 23 23 23 23 23
21 21 22 22 23 23 23 24 24 25 25 24 24 24 24 23 24 23 23 24 24 24 24 24 24 24 24 24 25 24 24 24 24 25 24 24 24 24
21 22 22 22 23 23 24 24 25 25 25 25 25 26 25 25 24 24 24 24 25 25 25 25 25 25 24 24 24 24 25 25 25 25 25 25 25 25
21 22 22 23 23 23 23 24 25 26 26 26 26 27 27 27 26 26 25 25 25 25 25 25 25 25 25 25 25 25 25 25 25 25 26 26 26 26
22 23 23 23 24 24 24 24 25 26 26 26 26 27 27 28 28 27 27 26 26 26 26 26 26 25 26 26 25 25 25 25 25 26 26 26 26 26
24 24 24 25 25 25 25 25 25 26 26 27 26 27 27 27 28 28 28 28 28 27 27 27 26 26 26 26 26 26 26 26 26 26 26 26 26 26
25 25 26 26 26 26 26 26 26 26 26 26 26 26 26 27 28 28 29 29 28 29 28 28 28 27 27 27 27 27 27 27 26 26 26 26 26 26
26 27 27 27 27 28 28 28 28 28 27 27 26 26 27 28 29 30 30 29 29 29 30 29 28 28 28 28 28 28 28 27 26 26 26 27 27 26
27 28 28 28 28 28 29 29 29 29 29 29 29 28 28 29 29 29 29 29 29 30 30 30 29 29 29 28 28 28 28 27 27 27 27 27 27 27
28 29 29 29 29 29 29 29 29 30 30 30 29 29 29 29 30 30 29 29 29 29 30 30 30 29 29 28 29 28 28 28 28 27 27 27 28 28
29 29 30 29 29 29 30 30 30 30 30 31 31 30 29 30 30 31 30 30 30 30 30 30 30 30 30 29 29 29 28 28 28 28 27 28 28 29
29 30 30 30 30 30 30 30 31 31 30 31 31 31 30 30 30 31 31 31 31 32 31 31 31 31 30 30 29 29 29 28 28 28 28 28 28 29
30 30 30 31 31 31 31 31 31 31 30 31 31 31 30 30 30 30 31 31 31 32 32 31 31 31 30 30 30 29 29 29 28 28 28 28 28 28
31 31 31 32 32 32 32 31 31 30 30 30 31 31 30 30 30 30 31 31 31 32 32 31 31 31 30 30 30 29 29 29 28 28 28 28 28 28
31 31 32 32 32 32 31 31 31 31 30 30 30 31 30 30 30 30 31 31 32 32 32 31 31 32 31 31 30 30 29 29 29 29 29 29 29 28
31 31 31 31 31 32 31 31 31 31 31 31 31 30 30 30 31 31 31 32 32 32 32 32 32 32 32 31 30 30 30 29 30 30 29 29 29 29
32 31 31 31 31 31 31 31 31 31 31 31 31 31 31 31 31 32 32 31 31 32 32 32 32 32 32 32 32 32 30 29 29 30 30 29 28 28
31 31 31 31 31 31 31 31 30 30 31 31 31 31 31 31 32 32 32 32 32 32 33 33 33 33 32 32 31 31 31 30 29 29 30 30 29 28
30 31 31 31 31 30 30 30 30 30 30 30 30 30 31 32 32 32 33 32 32 32 32 32 32 32 32 32 32 31 31 30 29 28 29 29 29 28
30 30 30 30 29 29 29 29 29 29 29 29 29 30 30 31 31 32 32 31 31 31 31 32 32 31 31 31 31 31 32 31 29 29 29 29 29 28
28 28 28 28 28 28 28 28 28 28 28 29 29 29 29 30 30 30 30 30 29 29 30 30 30 31 31 31 31 31 31 31 30 29 30 30 29 28

GEFSNE_500_meanwind_312.txt.gz
Wind_Speed
20 20 21 21 21 21 21 22 22 23 23 24 25 25 25 25 24 24 24 24 24 24 24 24 24 24 23 23 24 24 24 23 23 23 22 22 22 23
20 20 21 22 22 23 23 23 23 24 24 25 25 26 26 26 25 24 24 25 24 24 24 24 24 24 24 24 23 24 23 23 23 22 22 22 22 23
20 20 21 22 23 23 24 25 25 25 25 26 25 25 25 25 25 25 24 25 25 24 24 24 24 24 24 24 24 24 24 24 24 23 23 23 23 23
21 21 21 22 23 24 24 25 25 25 25 25 25 25 25 25 25 25 26 25 25 25 24 24 24 25 24 25 24 24 24 24 23 24 23 23 23 23
21 22 22 23 23 24 24 25 25 25 25 26 26 26 26 26 26 26 26 26 25 25 25 25 25 25 25 25 25 25 24 25 24 24 24 23 23 24
22 22 22 23 24 24 25 25 25 25 25 26 26 26 26 27 27 27 27 27 27 27 27 26 26 26 25 25 25 25 26 25 25 25 25 24 24 24
23 24 24 24 24 25 26 26 26 26 26 26 27 27 27 28 28 28 28 28 28 28 28 28 27 26 25 26 26 25 25 25 25 25 25 25 25 25
25 25 25 25 26 26 27 27 27 27 27 27 27 28 28 28 28 29 29 29 29 29 29 29 28 27 27 27 27 27 26 26 26 26 26 26 26 27
26 26 26 26 26 27 27 28 28 29 29 28 27 28 29 28 28 29 29 30 30 30 30 30 30 29 28 28 27 28 27 27 28 27 27 28 28 27
27 28 28 29 29 29 29 29 29 29 29 29 28 29 29 29 29 29 30 31 31 31 31 31 31 31 30 29 29 28 28 28 28 28 28 29 29 28
29 29 30 30 30 31 31 30 30 30 30 30 29 30 30 31 31 30 30 31 32 32 32 32 32 32 31 31 30 30 30 30 29 29 29 29 29 29
29 30 30 31 31 31 31 31 30 30 31 31 31 31 30 31 32 32 32 32 32 33 33 33 33 33 33 32 32 31 31 30 30 30 29 29 29 30
30 31 31 31 31 31 31 31 31 31 31 31 31 31 32 32 32 32 32 32 33 33 34 34 33 34 33 32 33 32 31 31 31 30 29 29 30 30
31 31 31 31 32 32 32 33 33 32 31 31 31 32 32 32 32 33 33 33 33 34 34 34 34 34 34 33 32 32 32 31 30 30 30 30 30 30
32 32 31 32 32 32 32 33 33 33 32 32 32 32 31 32 32 33 34 33 33 34 34 34 34 34 34 33 32 32 32 32 32 31 31 31 30 30
32 32 32 33 33 32 32 33 33 33 32 32 32 32 32 32 32 33 34 33 34 34 34 34 34 34 34 33 33 32 32 33 33 33 32 32 31 31
31 32 32 33 32 32 33 32 32 32 32 32 32 32 32 32 32 32 32 32 33 33 34 34 34 34 33 33 32 32 33 33 34 34 33 32 32 32
32 32 32 32 32 32 32 32 32 31 31 31 32 32 32 32 32 31 30 30 32 33 33 32 33 33 33 33 33 33 33 33 33 33 33 32 32 32
31 32 31 31 31 31 31 31 31 30 30 30 31 31 31 32 32 31 30 30 31 32 32 32 32 33 33 33 33 33 33 33 33 33 33 33 32 31
31 31 31 31 31 30 30 30 30 30 30 30 30 29 30 30 30 30 31 31 31 32 32 32 33 33 33 33 33 33 33 33 33 33 33 33 32 32
32 32 32 31 31 30 30 30 30 30 29 29 29 29 29 29 29 29 30 31 31 31 31 32 32 33 33 33 33 33 33 33 33 32 32 32 32 32
32 32 31 31 30 30 30 30 29 28 28 27 27 28 28 28 28 28 28 29 29 30 30 31 31 31 32 32 32 32 31 32 32 32 32 32 32 31
31 31 31 30 29 29 28 28 28 28 27 26 27 27 27 27 27 27 27 27 28 28 29 29 30 30 30 30 31 31 31 30 30 31 31 32 31 31

GEFSNE_500_meanwind_318.txt.gz
Wind_Speed
19 19 19 20 21 21 22 23 23 23 23 23 23 23 24 24 24 24 25 26 26 26 27 27 27 26 26 26 25 24 25 25 25 25 26 25 25 26
19 19 20 21 21 21 22 23 23 24 24 25 25 25 25 26 26 26 26 27 27 28 28 28 28 28 27 27 26 26 25 25 24 23 23 24 25 26
20 21 21 22 22 22 23 24 24 24 25 25 26 26 27 27 27 27 27 28 28 28 28 28 28 28 28 28 27 27 26 25 23 24 23 23 24 25
21 21 22 22 22 23 23 24 24 24 24 24 25 26 27 27 27 28 28 29 29 29 29 29 29 29 29 28 29 28 28 27 25 25 25 25 25 26
21 22 22 22 22 22 23 23 24 24 24 25 25 25 26 27 27 28 28 28 28 29 29 30 30 29 29 29 29 29 29 29 27 26 26 26 26 26
22 22 22 22 23 23 24 24 25 25 26 26 26 25 25 26 27 27 28 28 28 29 29 29 30 30 30 30 29 29 29 29 29 28 27 27 28 28
23 23 23 24 24 25 25 26 26 26 27 27 26 26 26 26 27 28 28 29 29 29 29 29 30 31 31 31 30 30 30 30 29 28 29 29 29 28
24 24 24 25 26 26 27 27 28 28 27 27 27 27 28 28 28 28 28 29 29 30 29 29 29 30 30 31 31 31 30 30 30 29 29 29 29 29
25 26 26 27 27 27 28 28 28 28 28 28 28 29 29 29 29 29 29 29 29 29 29 29 29 29 30 30 31 31 31 30 30 30 30 29 29 29
26 27 28 28 28 29 29 29 29 28 29 29 30 30 30 30 31 31 30 30 30 30 30 30 30 30 30 29 30 31 31 30 31 30 30 30 29 29
27 27 28 29 29 30 30 29 29 29 31 32 32 32 32 32 32 31 31 31 30 30 30 30 30 30 30 31 30 30 30 31 31 31 31 30 29 29
28 28 28 29 29 30 30 30 30 31 32 32 33 33 33 33 32 32 32 32 31 31 31 31 31 31 31 31 31 31 31 31 30 30 31 31 30 29
29 29 29 29 30 30 31 31 31 32 32 32 32 33 33 33 33 33 32 32 32 32 32 32 32 32 32 32 32 32 31 31 31 31 30 30 30 30
30 30 30 30 30 31 31 31 32 32 33 33 33 33 33 34 34 33 32 32 32 32 33 32 32 32 33 33 33 33 32 32 32 31 31 30 30 31
31 31 30 30 31 31 31 32 32 32 33 33 33 33 33 33 34 33 33 32 32 32 32 32 32 32 32 32 32 33 33 32 32 32 31 31 31 31
31 31 31 31 31 31 31 32 32 32 33 33 33 33 33 33 32 32 32 32 32 31 31 32 32 32 32 32 32 32 33 33 32 32 32 32 32 32
31 31 31 31 31 31 31 31 31 31 32 31 31 31 31 31 31 31 31 31 31 31 30 31 31 32 32 32 31 32 32 33 33 32 31 31 32 32
32 32 32 31 31 31 31 31 31 31 30 30 29 29 29 29 29 30 31 31 31 31 31 31 31 31 32 32 32 32 32 33 33 34 33 32 32 33
32 31 31 31 31 31 31 30 30 29 29 28 29 28 28 28 28 29 30 30 30 31 31 31 32 32 31 31 32 32 32 31 31 33 34 33 33 33
31 31 31 30 30 30 30 30 29 29 28 28 28 28 28 28 28 29 29 29 29 29 30 31 31 31 31 31 31 31 30 30 30 31 31 32 33 33
31 31 31 30 30 29 29 29 28 28 28 27 27 27 28 28 29 29 28 28 28 29 29 29 30 31 31 31 31 31 31 30 30 30 30 31 31 32
30 30 30 29 28 28 28 28 28 27 27 27 27 27 27 27 27 27 27 27 27 27 28 28 30 30 31 30 30 30 31 31 31 31 30 30 30 30
29 29 28 28 28 28 28 27 27 27 27 27 27 27 26 26 26 26 25 26 26 26 26 27 28 28 28 29 29 30 31 32 32 32 31 31 30 30